sat.trackr.live / text

‹ back to catalog

BEIDOU-3 M9 (C29)

NORAD 43245 · 2018-029A

PAYLOAD ACTIVE UNKNOWN

§ Identity

Operator
Country
PRC
Launch date
2018-03-29
Launch site
XICLF
Launch vehicle
Mass (kg)
RCS (m²)

Purposes: nav

External: N2YO · Heavens-Above · Gunter

§ Orbital elements

Epoch: 2026-09-19T23:46:18.755904Z

Period
773.24 min
Inclination
54.1054°
Eccentricity
0.0001767
Mean motion
1.86228592 rev/d
Perigee alt
21,523.4 km
Apogee alt
21,533.2 km
Semi-major
27,906.4 km
B*
0.0000e+0
RAAN
296.6241°
Arg perigee
237.2935°
Mean anomaly
122.7492°
Rev number
5,766

§ Raw data

BEIDOU-3 M9 (C29)1 43245U 18029A   26262.99049486 -.00000021  00000+0  00000+0 0  99972 43245  54.1054 296.6241 0001767 237.2935 122.7492  1.86228592 57665

JSON: /api/v1/satellites/43245 · /tle

For live sub-satellite position, see the globe view (requires WebGL).

§ Visibility from observer

Set your observer location to see the next 7 days of passes ≥ 10°. The values pass through the URL so the page stays shareable.

No JS? Fill the form by hand. The geolocation button needs JavaScript.